FW6720 Weather Reports


Display with metric or nautical units.
time (UTC)temp
F
wind
direction
speed
MPH
gust
MPH
rain 1hr
in
rain 24hr
in
rain mn
in
humidity
%
barometer
mb
20260509004142 63 51 0.0 0.0 0.00 0.00 0.00 63 1023.7
20260509003641 63 51 0.0 0.0 0.00 0.00 0.00 59 1023.8
20260509003138 64 51 0.0 0.0 0.00 0.00 0.00 58 1023.6
20260509002635 64 51 0.0 0.0 0.00 0.00 0.00 60 1023.7
20260509002132 65 51 0.0 0.0 0.00 0.00 0.00 58 1023.3
20260509001630 65 51 0.0 0.0 0.00 0.00 0.00 55 1023.4
20260509001125 65 51 0.0 0.0 0.00 0.00 0.00 54 1023.5
20260509000624 65 51 0.0 0.0 0.00 0.00 0.00 56 1023.6
20260509000120 65 52 0.0 0.0 0.00 0.00 0.00 54 1023.7
20260508235617 65 52 0.0 0.0 0.00 0.00 0.00 54 1023.6
20260508235114 65 53 0.0 0.0 0.00 0.00 0.00 53 1023.6
20260508234611 65 52 0.0 0.0 0.00 0.00 0.00 58 1023.6
20260508234107 65 52 0.0 0.0 0.00 0.00 0.00 56 1023.8
20260508233607 65 52 0.0 0.0 0.00 0.00 0.00 52 1023.7
20260508233104 65 52 0.0 0.0 0.00 0.00 0.00 53 1023.8
20260508232601 64 53 0.0 0.0 0.00 0.00 0.00 53 1023.6
20260508232057 64 53 0.0 0.0 0.00 0.00 0.00 55 1023.7
20260508231556 64 52 0.0 0.0 0.00 0.00 0.00 55 1023.7
20260508231052 64 52 0.0 0.0 0.00 0.00 0.00 54 1023.8
20260508230549 64 52 0.0 0.0 0.00 0.00 0.00 58 1023.7
20260508230045 63 52 0.0 0.0 0.00 0.00 0.00 58 1023.9
20260508225543 63 52 0.0 0.0 0.00 0.00 0.00 55 1023.7
20260508225039 64 52 0.0 0.0 0.00 0.00 0.00 54 1023.7
20260508224538 64 52 0.0 0.0 0.00 0.00 0.00 57 1023.6
20260508224034 64 53 0.0 0.0 0.00 0.00 0.00 56 1023.6
20260508223532 64 55 0.0 0.0 0.00 0.00 0.00 53 1023.7
20260508223029 64 53 0.0 0.0 0.00 0.00 0.00 56 1023.5
20260508222527 63 54 0.0 0.0 0.00 0.00 0.00 53 1023.5
20260508222023 64 52 0.0 0.0 0.00 0.00 0.00 53 1023.4
20260508221520 64 54 0.0 0.0 0.00 0.00 0.00 55 1023.5
20260508221015 64 54 0.0 0.0 0.00 0.00 0.00 51 1023.8
20260508220512 64 54 0.0 0.0 0.00 0.00 0.00 52 1023.8
20260508220009 63 54 0.0 0.0 0.00 0.00 0.00 52 1023.8
20260508215505 64 56 0.0 1.0 0.00 0.00 0.00 51 1023.7
20260508215002 65 55 0.0 1.0 0.00 0.00 0.00 51 1023.8
20260508214500 65 55 0.0 0.0 0.00 0.00 0.00 50 1023.4
20260508213955 65 56 0.0 0.0 0.00 0.00 0.00 49 1023.6
20260508213454 66 57 0.0 1.0 0.00 0.00 0.00 49 1023.8
20260508212948 66 55 0.0 0.0 0.00 0.00 0.00 52 1023.7
20260508212446 64 31 0.0 0.0 0.00 0.00 0.00 52 1023.8
20260508211941 64 67 0.0 0.0 0.00 0.00 0.00 51 1024.0
20260508211437 65 17 0.0 1.0 0.00 0.00 0.00 50 1023.8
20260508210934 64 56 0.0 0.0 0.00 0.00 0.00 52 1023.8
20260508210431 63 56 0.0 0.0 0.00 0.00 0.00 54 1024.0
20260508205927 63 88 1.0 2.0 0.00 0.00 0.00 54 1023.9
20260508205425 62 55 0.0 0.0 0.00 0.00 0.00 55 1024.0
20260508204920 62 56 0.0 0.0 0.00 0.00 0.00 53 1024.1
20260508204418 62 42 0.0 0.0 0.00 0.00 0.00 54 1023.9
20260508203913 61 38 0.0 1.0 0.00 0.00 0.00 56 1023.7
20260508203410 60 28 1.0 1.0 0.00 0.00 0.00 57 1023.6
20260508202906 61 56 0.0 0.0 0.00 0.00 0.00 54 1023.8
20260508202403 60 59 0.0 0.0 0.00 0.00 0.00 56 1023.9
20260508201900 62 61 0.0 0.0 0.00 0.00 0.00 56 1023.8
20260508201357 62 62 0.0 1.0 0.00 0.00 0.00 55 1023.7
20260508200854 61 51 0.0 0.0 0.00 0.00 0.00 58 1023.9
20260508200350 60 67 0.0 0.0 0.00 0.00 0.00 56 1024.1
20260508195846 60 63 0.0 0.0 0.00 0.00 0.00 57 1024.0
20260508195343 60 57 0.0 1.0 0.00 0.00 0.00 59 1024.1
20260508194839 59 18 0.0 0.0 0.00 0.00 0.00 59 1024.1
20260508194337 58 42 0.0 0.0 0.00 0.00 0.00 60 1024.0
20260508193833 59 31 0.0 0.0 0.00 0.00 0.00 60 1024.1
20260508193330 58 64 1.0 2.0 0.00 0.00 0.00 62 1024.1
20260508192827 59 53 0.0 0.0 0.00 0.00 0.00 61 1024.1
20260508192324 58 68 0.0 0.0 0.00 0.00 0.00 62 1024.1
20260508191821 57 29 1.0 1.0 0.00 0.00 0.00 61 1024.2
20260508191318 56 34 0.0 0.0 0.00 0.00 0.00 64 1024.1
20260508190815 59 71 0.0 1.0 0.00 0.00 0.00 61 1024.2
20260508190311 58 51 0.0 0.0 0.00 0.00 0.00 64 1024.0
20260508185807 57 26 1.0 2.0 0.00 0.00 0.00 62 1024.2
20260508185306 58 41 1.0 1.0 0.00 0.00 0.00 59 1024.0
20260508184802 57 48 0.0 1.0 0.00 0.00 0.00 59 1024.1
20260508184259 58 49 0.0 1.0 0.00 0.00 0.00 60 1023.9
20260508183756 56 45 0.0 0.0 0.00 0.00 0.00 61 1024.0
20260508183253 56 60 0.0 0.0 0.00 0.00 0.00 62 1024.2
20260508182749 56 63 0.0 0.0 0.00 0.00 0.00 62 1024.0
20260508182245 56 58 0.0 2.0 0.00 0.00 0.00 61 1024.1
20260508181741 55 61 0.0 1.0 0.00 0.00 0.00 63 1024.0
20260508181238 56 52 0.0 0.0 0.00 0.00 0.00 62 1023.9
20260508180735 57 61 2.0 3.0 0.00 0.00 0.00 60 1024.3
20260508180232 57 56 1.0 2.0 0.00 0.00 0.00 61 1024.1
20260508175728 57 63 1.0 1.0 0.00 0.00 0.00 61 1023.8
20260508175225 56 49 0.0 0.0 0.00 0.00 0.00 63 1024.0
20260508174723 57 24 1.0 2.0 0.00 0.00 0.00 62 1023.8
20260508174220 56 22 1.0 1.0 0.00 0.00 0.00 62 1023.8
20260508173716 56 84 1.0 1.0 0.00 0.00 0.00 63 1023.6
20260508173212 56 15 1.0 2.0 0.00 0.00 0.00 62 1023.8
20260508172710 55 91 0.0 1.0 0.00 0.00 0.00 63 1023.7
20260508172206 55 52 0.0 0.0 0.00 0.00 0.00 67 1023.4
20260508171703 54 53 0.0 0.0 0.00 0.00 0.00 65 1023.4
20260508171159 54 30 0.0 0.0 0.00 0.00 0.00 67 1023.1
20260508170656 54 31 0.0 0.0 0.00 0.00 0.00 65 1023.3
20260508170154 55 50 0.0 0.0 0.00 0.00 0.00 63 1023.1
20260508165651 54 48 0.0 0.0 0.00 0.00 0.00 64 1022.9
20260508165148 53 36 0.0 0.0 0.00 0.00 0.00 65 1023.0
20260508164644 53 50 0.0 1.0 0.00 0.00 0.00 65 1023.0
20260508164141 54 56 0.0 0.0 0.00 0.00 0.00 65 1022.9
20260508163639 54 47 0.0 0.0 0.00 0.00 0.00 66 1023.0
20260508163136 54 47 0.0 0.0 0.00 0.00 0.00 66 1022.9
20260508162631 54 49 0.0 1.0 0.00 0.00 0.00 64 1022.9
20260508162129 54 49 0.0 0.0 0.00 0.00 0.00 64 1022.7
20260508161626 53 50 0.0 0.0 0.00 0.00 0.00 65 1023.0
20260508161123 54 46 0.0 0.0 0.00 0.00 0.00 65 1022.9
20260508160622 54 45 0.0 0.0 0.00 0.00 0.00 68 1022.9
20260508160119 53 53 0.0 0.0 0.00 0.00 0.00 69 1022.6
20260508155616 53 52 0.0 0.0 0.00 0.00 0.00 69 1022.9
20260508155112 52 50 0.0 0.0 0.00 0.00 0.00 68 1023.1
20260508154609 51 49 0.0 0.0 0.00 0.00 0.00 72 1022.6
20260508154106 51 49 0.0 0.0 0.00 0.00 0.00 72 1022.4
20260508153603 51 49 0.0 0.0 0.00 0.00 0.00 72 1022.6
20260508153100 51 26 0.0 0.0 0.00 0.00 0.00 73 1022.2
20260508152557 51 26 0.0 0.0 0.00 0.00 0.00 74 1022.4
20260508152052 51 25 0.0 0.0 0.00 0.00 0.00 73 1022.2
20260508151549 51 26 0.0 0.0 0.00 0.00 0.00 72 1022.2
20260508151046 50 26 0.0 0.0 0.00 0.00 0.00 72 1022.1
20260508150543 50 25 0.0 0.0 0.00 0.00 0.00 72 1022.3
20260508150038 50 25 0.0 0.0 0.00 0.00 0.00 74 1022.1
20260508145536 50 25 0.0 0.0 0.00 0.00 0.00 74 1022.0
20260508145032 50 25 0.0 0.0 0.00 0.00 0.00 75 1021.9
20260508144530 50 25 0.0 0.0 0.00 0.00 0.00 78 1021.9
20260508144027 50 25 0.0 0.0 0.00 0.00 0.00 75 1021.8
20260508143525 50 25 0.0 0.0 0.00 0.00 0.00 72 1021.9
20260508143021 50 25 0.0 0.0 0.00 0.00 0.00 74 1022.1
20260508142518 50 25 0.0 0.0 0.00 0.00 0.00 73 1022.1
20260508142014 50 48 0.0 0.0 0.00 0.00 0.00 73 1022.1
20260508141511 49 41 0.0 0.0 0.00 0.00 0.00 74 1022.2
20260508141009 49 39 0.0 0.0 0.00 0.00 0.00 73 1021.9
20260508140506 49 53 0.0 0.0 0.00 0.00 0.00 72 1022.4
20260508140001 49 41 0.0 0.0 0.00 0.00 0.00 74 1022.1
20260508135458 49 41 0.0 0.0 0.00 0.00 0.00 73 1022.0
20260508134954 49 42 0.0 0.0 0.00 0.00 0.00 75 1021.9
20260508134451 49 34 0.0 0.0 0.00 0.00 0.00 74 1022.0
20260508133947 48 45 0.0 0.0 0.00 0.00 0.00 77 1021.9
20260508133445 48 44 0.0 0.0 0.00 0.00 0.00 79 1022.0
20260508132942 48 44 0.0 0.0 0.00 0.00 0.00 79 1021.7
20260508132440 48 44 0.0 0.0 0.00 0.00 0.00 78 1021.5
20260508131936 48 44 0.0 0.0 0.00 0.00 0.00 77 1021.3
20260508131432 48 45 0.0 0.0 0.00 0.00 0.00 77 1021.5
20260508130929 48 45 0.0 0.0 0.00 0.00 0.00 77 1021.2
20260508130426 48 45 0.0 0.0 0.00 0.00 0.00 75 1021.7
20260508125921 48 44 0.0 0.0 0.00 0.00 0.00 77 1021.1
20260508125418 48 124 0.0 0.0 0.00 0.00 0.00 77 1021.3
20260508124916 48 124 0.0 0.0 0.00 0.00 0.00 77 1021.2
20260508124413 48 124 0.0 0.0 0.00 0.00 0.00 76 1021.1
20260508123911 48 124 0.0 0.0 0.00 0.00 0.00 77 1021.2
20260508123409 48 124 0.0 0.0 0.00 0.00 0.00 77 1021.0
20260508122905 48 124 0.0 0.0 0.00 0.00 0.00 78 1020.9
20260508122402 48 124 0.0 0.0 0.00 0.00 0.00 77 1021.0
20260508121859 47 124 0.0 0.0 0.00 0.00 0.00 80 1020.9
20260508121358 48 124 0.0 0.0 0.00 0.00 0.00 80 1021.0
20260508120855 48 124 0.0 0.0 0.00 0.00 0.00 79 1021.0
20260508120353 48 124 0.0 0.0 0.00 0.00 0.00 79 1020.9
20260508115850 48 124 0.0 0.0 0.00 0.00 0.00 78 1020.9
20260508115347 48 124 0.0 0.0 0.00 0.00 0.00 79 1020.8
20260508114843 48 124 0.0 0.0 0.00 0.00 0.00 78 1021.0
20260508114341 48 124 0.0 0.0 0.00 0.00 0.00 77 1020.9
20260508113837 48 124 0.0 0.0 0.00 0.00 0.00 79 1020.7
20260508113336 48 124 0.0 0.0 0.00 0.00 0.00 80 1020.6
20260508112832 48 124 0.0 0.0 0.00 0.00 0.00 80 1020.7
20260508112329 48 124 0.0 0.0 0.00 0.00 0.00 81 1020.6
20260508111825 48 124 0.0 0.0 0.00 0.00 0.00 81 1020.6
20260508111323 48 124 0.0 0.0 0.00 0.00 0.00 82 1020.6
20260508110820 47 124 0.0 0.0 0.00 0.00 0.00 86 1020.4
20260508110317 46 124 0.0 0.0 0.00 0.00 0.00 87 1020.2
20260508105817 46 125 0.0 0.0 0.00 0.00 0.00 88 1020.2
20260508105314 46 125 0.0 0.0 0.00 0.00 0.00 88 1020.1
20260508104811 45 125 0.0 0.0 0.00 0.00 0.00 89 1020.2
20260508104308 45 125 0.0 0.0 0.00 0.00 0.00 88 1020.2
20260508103805 45 125 0.0 0.0 0.00 0.00 0.00 88 1020.1
20260508103302 45 125 0.0 0.0 0.00 0.00 0.00 89 1019.9
20260508102759 45 125 0.0 0.0 0.00 0.00 0.00 89 1020.0
20260508102257 45 125 0.0 0.0 0.00 0.00 0.00 89 1020.0
20260508101754 45 125 0.0 0.0 0.00 0.00 0.00 89 1019.9
20260508101252 45 125 0.0 0.0 0.00 0.00 0.00 88 1019.9
20260508100749 45 125 0.0 0.0 0.00 0.00 0.00 89 1019.6
20260508100247 45 125 0.0 0.0 0.00 0.00 0.00 88 1019.7
20260508095743 45 125 0.0 0.0 0.00 0.00 0.00 88 1019.8
20260508095241 45 125 0.0 0.0 0.00 0.00 0.00 88 1019.7
20260508094737 45 125 0.0 0.0 0.00 0.00 0.00 88 1019.5
20260508094235 45 125 0.0 0.0 0.00 0.00 0.00 88 1019.6
20260508093732 45 125 0.0 0.0 0.00 0.00 0.00 88 1019.6
20260508093229 45 125 0.0 0.0 0.00 0.00 0.00 88 1019.7
20260508092726 45 125 0.0 0.0 0.00 0.00 0.00 88 1019.5
20260508092224 45 125 0.0 0.0 0.00 0.00 0.00 88 1019.5
20260508091722 45 125 0.0 0.0 0.00 0.00 0.00 88 1019.5
20260508091218 45 125 0.0 0.0 0.00 0.00 0.00 89 1019.5
20260508090716 45 125 0.0 0.0 0.00 0.00 0.00 89 1019.3
20260508090214 45 125 0.0 0.0 0.00 0.00 0.00 89 1019.3
20260508085709 45 125 0.0 0.0 0.00 0.00 0.00 88 1019.3
20260508085207 45 125 0.0 0.0 0.00 0.00 0.00 88 1019.3
20260508084703 46 125 0.0 0.0 0.00 0.00 0.00 88 1019.5
20260508084201 46 125 0.0 0.0 0.00 0.00 0.00 88 1019.2
20260508083658 46 125 0.0 0.0 0.00 0.00 0.00 88 1019.2
20260508083155 46 125 0.0 0.0 0.00 0.00 0.00 88 1019.3
20260508082650 46 125 0.0 0.0 0.00 0.00 0.00 88 1019.2
20260508082147 46 125 0.0 0.0 0.00 0.00 0.00 88 1019.2
20260508081645 46 125 0.0 0.0 0.00 0.00 0.00 87 1019.3
20260508081141 46 125 0.0 0.0 0.00 0.00 0.00 87 1019.2
20260508080639 46 125 0.0 0.0 0.00 0.00 0.00 87 1019.3
20260508080137 46 125 0.0 0.0 0.00 0.00 0.00 87 1019.3
20260508075633 47 125 0.0 0.0 0.00 0.00 0.00 87 1019.2
20260508075130 47 125 0.0 0.0 0.00 0.00 0.00 87 1019.2
20260508074628 47 125 0.0 0.0 0.00 0.00 0.00 86 1019.3
20260508074124 47 125 0.0 0.0 0.00 0.00 0.00 86 1019.2
20260508073622 47 125 0.0 0.0 0.00 0.00 0.00 86 1019.2
20260508073120 47 125 0.0 0.0 0.00 0.00 0.00 86 1019.2
20260508072614 48 125 0.0 0.0 0.00 0.00 0.00 86 1019.3
20260508072112 48 125 0.0 0.0 0.00 0.00 0.00 86 1019.1
20260508071610 48 125 0.0 0.0 0.00 0.00 0.00 85 1018.9
20260508071108 48 125 0.0 0.0 0.00 0.00 0.00 86 1019.1
20260508070605 48 125 0.0 0.0 0.00 0.00 0.00 86 1019.1
20260508070104 48 125 0.0 0.0 0.00 0.00 0.00 85 1019.2
20260508065600 48 125 0.0 0.0 0.00 0.00 0.00 85 1019.2
20260508065058 48 125 0.0 0.0 0.00 0.00 0.00 85 1019.1
20260508064556 48 125 0.0 0.0 0.00 0.00 0.00 85 1019.3
20260508064054 48 125 0.0 0.0 0.00 0.00 0.00 85 1019.0
20260508063551 48 125 0.0 0.0 0.00 0.00 0.00 84 1019.1
20260508063049 48 125 0.0 0.0 0.00 0.00 0.00 85 1019.2
20260508062546 49 126 0.0 0.0 0.00 0.00 0.00 84 1019.2
20260508062042 49 126 0.0 0.0 0.00 0.00 0.00 84 1019.1
20260508061540 49 126 0.0 0.0 0.00 0.00 0.00 84 1019.1
20260508061037 49 126 0.0 0.0 0.00 0.00 0.00 84 1019.2
20260508060534 49 126 0.0 0.0 0.00 0.00 0.00 84 1019.4
20260508060031 49 126 0.0 0.0 0.00 0.00 0.00 84 1019.5
20260508055527 50 126 0.0 0.0 0.00 0.00 0.00 84 1019.5
20260508055024 50 126 0.0 0.0 0.00 0.00 0.00 84 1019.2
20260508054520 50 126 0.0 0.0 0.00 0.00 0.00 83 1019.3
20260508054018 50 126 0.0 0.0 0.00 0.00 0.00 83 1019.3
20260508053514 50 126 0.0 0.0 0.00 0.00 0.00 83 1019.5
20260508053013 50 126 0.0 0.0 0.00 0.00 0.00 83 1019.3
20260508052509 50 126 0.0 0.0 0.00 0.00 0.00 82 1019.4
20260508052006 51 126 0.0 0.0 0.00 0.00 0.00 82 1019.5
20260508051502 51 126 0.0 0.0 0.00 0.00 0.00 81 1019.4
20260508050957 51 126 0.0 0.0 0.00 0.00 0.00 81 1019.3
20260508050454 51 126 0.0 0.0 0.00 0.00 0.00 80 1019.4
20260508045951 51 126 0.0 0.0 0.00 0.00 0.00 79 1019.4
20260508045448 52 126 0.0 0.0 0.00 0.00 0.00 80 1019.3
20260508044946 52 126 0.0 0.0 0.00 0.00 0.00 79 1019.2
20260508044443 52 126 0.0 0.0 0.00 0.00 0.00 79 1019.1
20260508043938 52 126 0.0 0.0 0.00 0.00 0.00 78 1019.4
20260508043436 53 126 0.0 0.0 0.00 0.00 0.00 78 1019.3
20260508042931 53 126 0.0 0.0 0.00 0.00 0.00 78 1019.2
20260508042430 53 126 0.0 0.0 0.00 0.00 0.00 78 1019.4
20260508041926 53 126 0.0 0.0 0.00 0.00 0.00 77 1019.3
20260508041423 54 126 0.0 0.0 0.00 0.00 0.00 76 1019.1
20260508040920 54 126 0.0 0.0 0.00 0.00 0.00 76 1019.1
20260508040417 54 126 0.0 0.0 0.00 0.00 0.00 77 1019.0
20260508035915 55 126 0.0 0.0 0.00 0.00 0.00 77 1019.2
20260508035411 55 126 0.0 0.0 0.00 0.00 0.00 78 1018.9
20260508034908 55 126 0.0 0.0 0.00 0.00 0.00 77 1018.9
20260508034406 56 126 0.0 0.0 0.00 0.00 0.00 77 1018.7
20260508033902 56 126 0.0 0.0 0.00 0.00 0.00 77 1018.6
20260508033400 57 126 0.0 0.0 0.00 0.00 0.00 77 1018.7
20260508032857 57 126 0.0 0.0 0.00 0.00 0.00 77 1018.6
20260508032349 57 127 0.0 0.0 0.00 0.00 0.00 76 1018.7
20260508031845 58 129 0.0 0.0 0.00 0.00 0.00 76 1018.5
20260508031342 58 129 0.0 0.0 0.00 0.00 0.00 74 1018.5
20260508030838 59 129 0.0 0.0 0.00 0.00 0.00 75 1018.4
20260508030336 59 129 0.0 0.0 0.00 0.00 0.00 74 1018.3
20260508025832 60 129 0.0 0.0 0.00 0.00 0.00 74 1018.3
20260508025329 60 129 0.0 0.0 0.00 0.00 0.00 72 1018.5
20260508024826 60 129 0.0 0.0 0.00 0.00 0.00 73 1018.5
20260508024323 60 129 0.0 0.0 0.00 0.00 0.00 72 1018.2
20260508023820 61 129 0.0 0.0 0.00 0.00 0.00 73 1018.0
20260508023316 62 129 0.0 0.0 0.00 0.00 0.00 72 1018.3
20260508022813 62 129 0.0 0.0 0.00 0.00 0.00 71 1018.1
20260508022309 62 129 0.0 0.0 0.00 0.00 0.00 71 1018.4
20260508021807 63 129 0.0 0.0 0.00 0.00 0.00 70 1018.3
20260508021302 63 129 0.0 0.0 0.00 0.00 0.00 70 1018.2
20260508020758 64 129 0.0 0.0 0.00 0.00 0.00 68 1018.1
20260508020256 64 129 0.0 0.0 0.00 0.00 0.00 66 1018.4
20260508015753 64 129 0.0 0.0 0.00 0.00 0.00 66 1018.2
20260508015250 66 129 0.0 0.0 0.00 0.00 0.00 65 1018.1
20260508014747 66 129 0.0 0.0 0.00 0.00 0.00 62 1018.1
20260508014244 67 129 0.0 0.0 0.00 0.00 0.00 58 1018.1
20260508013740 67 129 0.0 0.0 0.00 0.00 0.00 59 1017.7
20260508013236 67 129 0.0 0.0 0.00 0.00 0.00 56 1018.1
20260508012734 67 129 0.0 0.0 0.00 0.00 0.00 59 1018.2
20260508012231 68 129 0.0 0.0 0.00 0.00 0.00 57 1018.3
20260508011729 68 129 0.0 0.0 0.00 0.00 0.00 54 1018.2
20260508011226 68 129 0.0 0.0 0.00 0.00 0.00 52 1018.2
20260508010722 68 129 0.0 0.0 0.00 0.00 0.00 53 1018.2
20260508010221 68 129 0.0 0.0 0.00 0.00 0.00 54 1018.5
20260508005718 69 129 0.0 0.0 0.00 0.00 0.00 55 1018.2
20260508005215 69 129 0.0 0.0 0.00 0.00 0.00 52 1018.2
20260508004710 69 129 0.0 0.0 0.00 0.00 0.00 50 1018.5